Вернуться в каталог

CZ-6A R/B

АктивенPO
NORAD 64288·ROCKET BODY·🇨🇳 China

Запущен Jun 5, 2025 с Taiyuan Satellite Launch Center

Loading…

Ближайшие Пролёты (ближайшие 24 часа)

TLE

СвежийSource: Space-Track

Эпоха: Sep 14, 2026, 11:01 UTC

1 64288U 25121F   26257.45929550  .00000059  00000-0  28713-4 0  9999
2 64288  86.5108 326.0207 0103831 130.7749 230.2493 13.94085170 64871

Отслеживайте CZ-6A R/B в реальном времени с AllMySat

Download on the App Store